FENGYUN 1C DEB, 41829

Orbit data source: Space-Track

FENGYUN 1C DEB, 41829 is space debris in SSO originally from a launch on Mon, 10 May 1999 UTC launched from the Taiyaun Space Center, China (TSC). Fengyun 1C debris stems from the Chinese weather satellite Fengyun-1C, which was intentionally destroyed by a Chinese anti-satellite missile in 2007. This event dramatically increased the amount of space debris, with thousands of trackable fragments posing hazards to satellites and human spaceflight. The Fengyun 1C debris cloud has become a focal point in discussions about space sustainability and the need for international regulations to prevent the creation of new debris.

Loading next visibility...
Identifier
41829, 1999-025EYG
Orbit
SSO
Country
Flag of CNCN / PRC
Related business
Manufacturer
Unknown
Mission
Spacecraft
Bus & Motor
Unknown
Mass
Unknown
Launch date (UTC)
1999-05-10 (27 years ago)
Launch vehicle
Unknown
Launch site
Taiyaun Space Center, China (TSC)
Object type
Payload
Rocket body
Debris
Shape & HBR
Unknown shape, 0.1 m
Radar Cross Section
Small (<0.1 m²)

Expand to show TLE details & history
Last TLE update: 8 hours ago

TLE from 8 hours ago
0 FENGYUN 1C DEB
1 41829U 99025EYG 26145.17167328  .00002772  00000-0  11540-2 0  9993
2 41829  98.7311 218.8510 0056630 105.3547 255.3900 14.26263216496360
Epoch: 2026-05-25T04:07Z
TLE epoch observation values (Epoch: 2026-05-25T04:07:12.571Z)
Latitude
-0.00003°
Longitude
-85.71466°
Altitude
817.648 km
Speed
7.439 km/s
True Right ascension
14h 35m 24s
True Declination
0° 00' 00"
Sunlit
Object was in full shadow at epoch
Visualization orbit readout
Latitude
Unknown
Longitude
Unknown
Altitude
Unknown
Speed
Unknown
Apparent Right ascension
Unknown
Apparent Declination
Unknown
Sunlit
N/A
Visualization observer readout
Local Sidereal Time
21:43:25
Azimuth
Unknown
Elevation
Unknown
Doppler factor
Unknown
Orbital elements
Apogee altitude
842.057 km
Perigee altitude
760.742 km
Semi-major axis
7,179.537 km
Eccentricity
0.00566
Inclination
98.7311°
RAAN
218.851°
Arg. of periapsis
105.3547°
True anomaly
254.76318°
Mean anomaly
255.39°
Eccentric anomaly
255.07648°
Mean motion
3.56778 °/min
Orbital period
100.9 mins
BSTAR
0.001154
Loading maneuver chart data...
Computing Atmospheric mass density...
Loading historical data...
Loading historical data...
Loading historical data...
Loading historical data...
Loading historical data...
Loading historical data...
Loading historical data...

Documentation

Showing up to 5 results
|